Lincoln, NE

10:31 PM CDT on September 22, 2017 (GMT -0500)
Lincoln Municipal

Weather History for KLNK - November, 2011

Change the Weather History Date:

Thursday, November 17, 2011

  Actual Average Record
Temperature  
Mean Temperature 33 °F 38 °F  
Max Temperature 50 °F 49 °F 75 °F (1941)
Min Temperature 15 °F 27 °F 5 °F (1959)
Degree Days  
Heating Degree Days 32 27  
Month to date heating degree days 389 384  
Since 1 July heating degree days 867 863  
Cooling Degree Days 0 0  
Month to date cooling degree days 0 0  
Year to date cooling degree days 1296 1173  
Moisture  
Dew Point 20 °F    
Average Humidity 54    
Maximum Humidity 84    
Minimum Humidity 24    
Precipitation  
Precipitation 0.00 in 0.05 in 1.44 in (1971)
Month to date precipitation 1.61 0.88  
Year to date precipitation 27.54 27.45  
Snow  
Snow 0.00 in 0.00 in - ()
Month to date snowfall T 0.8  
Since 1 July snowfall T 1.5  
Snow Depth 0.00 in    
Sea Level Pressure  
Sea Level Pressure 30.17 in    
Wind  
Wind Speed 13 mph (SSW)    
Max Wind Speed 25 mph    
Max Gust Speed 32 mph    
Visibility 10 miles    
Events      
T = Trace of Precipitation, MM = Missing Value Source: NWS Daily Summary

Daily Weather History Graph

Daily Weather History Graph

Search for Another Location

Airport or City:

Trip Planner

Search our weather history database for the weather conditions in past years. The results will help you decide how hot, cold, wet, or windy it might be!

Date:

Astronomy

Nov. 17, 2011 Rise Set
Actual Time 7:16 AM CST 5:07 PM CST
Civil Twilight 6:46 AM CST 5:36 PM CST
Nautical Twilight 6:13 AM CST 6:10 PM CST
Astronomical Twilight 5:40 AM CST 6:42 PM CST
Moon 11:30 PM CST (11/17) 12:25 PM CST (11/17)
Length of Visible Light 10h 50m
Length of Day
9h 51m
Waning Gibbous, 59% of the Moon is Illuminated
Nov 17
Waning Gibbous
Nov 18
Last Quarter
Nov 25
New
Dec 2
First Quarter
Dec 10
Full

Hourly Weather History & Observations

Time (CST) Temp. Windchill Dew Point Humidity Pressure Visibility Wind Dir Wind Speed Gust Speed Precip Events Conditions
12:54 AM 24.1 °F - 19.0 °F 81% 30.38 in 10.0 mi Calm Calm - N/A   Clear
1:54 AM 19.9 °F 14.9 °F 16.0 °F 85% 30.36 in 10.0 mi SSW 3.5 mph - N/A   Clear
2:54 AM 21.9 °F 13.4 °F 17.1 °F 82% 30.36 in 10.0 mi WSW 6.9 mph - N/A   Clear
3:54 AM 21.9 °F 10.4 °F 17.1 °F 82% 30.36 in 10.0 mi WSW 11.5 mph - N/A   Clear
4:54 AM 19.9 °F 14.9 °F 16.0 °F 85% 30.34 in 10.0 mi South 3.5 mph - N/A   Clear
5:54 AM 19.0 °F 12.3 °F 15.1 °F 85% 30.34 in 10.0 mi South 4.6 mph - N/A   Clear
6:54 AM 18.0 °F 11.1 °F 14.0 °F 84% 30.33 in 10.0 mi South 4.6 mph - N/A   Clear
7:54 AM 19.9 °F 14.9 °F 16.0 °F 85% 30.34 in 10.0 mi South 3.5 mph - N/A   Clear
8:54 AM 25.0 °F 17.1 °F 19.9 °F 81% 30.32 in 10.0 mi SSE 6.9 mph - N/A   Clear
9:54 AM 30.9 °F 22.8 °F 23.0 °F 72% 30.30 in 10.0 mi SSW 9.2 mph - N/A   Clear
10:54 AM 37.4 °F 29.8 °F 21.2 °F 52% 30.24 in 10.0 mi SSW 11.5 mph - N/A   Clear
11:54 AM 43.0 °F 36.0 °F 21.0 °F 42% 30.22 in 10.0 mi South 13.8 mph - N/A   Clear
12:54 PM 46.9 °F - 16.0 °F 29% 30.17 in 10.0 mi SSW 21.9 mph 28.8 mph N/A   Clear
1:54 PM 48.9 °F - 17.1 °F 28% 30.12 in 10.0 mi South 25.3 mph 28.8 mph N/A   Clear
2:54 PM 50.0 °F - 16.0 °F 26% 30.09 in 10.0 mi SSW 19.6 mph 26.5 mph N/A   Clear
3:54 PM 48.0 °F - 21.0 °F 34% 30.07 in 10.0 mi SSW 23.0 mph 28.8 mph N/A   Clear
4:54 PM 46.0 °F 39.9 °F 23.0 °F 40% 30.05 in 10.0 mi South 13.8 mph - N/A   Clear
5:54 PM 41.0 °F 33.9 °F 24.1 °F 51% 30.02 in 10.0 mi South 12.7 mph - N/A   Clear
6:54 PM 39.9 °F 32.5 °F 24.1 °F 53% 30.01 in 10.0 mi South 12.7 mph - N/A   Clear
7:54 PM 41.0 °F 31.9 °F 24.1 °F 51% 29.99 in 10.0 mi South 19.6 mph - N/A   Clear
8:54 PM 41.0 °F 31.1 °F 24.1 °F 51% 29.97 in 10.0 mi South 23.0 mph 29.9 mph N/A   Clear
9:54 PM 41.0 °F 31.4 °F 24.1 °F 51% 29.94 in 10.0 mi South 21.9 mph 31.1 mph N/A   Clear
10:54 PM 39.9 °F 30.2 °F 24.1 °F 53% 29.91 in 10.0 mi South 20.7 mph 31.1 mph N/A   Clear
11:54 PM 39.9 °F 30.8 °F 24.1 °F 53% 29.86 in 10.0 mi South 18.4 mph 28.8 mph N/A   Clear